SCOUT A DEB, 2989

Orbit data source: Space-Track

SCOUT A DEB, 2989 is space debris in LEO originally from a launch on Fri, 28 Jan 1966 UTC launched from the Air Force Western Test Range (AFWTR). Debris objects in space refer to the collection of defunct objects orbiting the Earth. Examples of debris include non-operational satellites, rocket bodies, and fragments generated from explosions, collisions, or faulty payload assembly.

Loading next visibility...
Identifier
2989, 1966-005F
Orbit
LEO
Country
Flag of USUS
Related business
Manufacturer
Unknown
Mission
Spacecraft
Bus & Motor
Unknown
Mass
Unknown
Launch date (UTC)
1966-01-28 (60 years ago)
Launch vehicle
Unknown
Launch site
Air Force Western Test Range (AFWTR)
Object type
Payload
Rocket body
Debris
Shape & HBR
Unknown shape, 0.1 m
Radar Cross Section
Medium (>0.1 m² and <1 m²)

Expand to show TLE details & history
Last TLE update: 1 day ago

TLE from 1 day ago
0 SCOUT A DEB
1 02989U 66005F   26202.20784179  .00000502  00000-0  31163-3 0  9999
2 02989  89.6620 282.9974 0110267 144.1677 216.6965 14.00684433  1750
Epoch: 2026-07-21T04:59Z
TLE epoch observation values (Epoch: 2026-07-21T04:59:17.530Z)
Latitude
-0.00007°
Longitude
-90.80648°
Altitude
959.052 km
Speed
7.339 km/s
True Right ascension
18h 51m 59s
True Declination
0° 00' 00"
Sunlit
Object was in full shadow at epoch
Visualization orbit readout
Latitude
Unknown
Longitude
Unknown
Altitude
Unknown
Speed
Unknown
Apparent Right ascension
Unknown
Apparent Declination
Unknown
Sunlit
N/A
Visualization observer readout
Local Sidereal Time
18:15:06
Azimuth
Unknown
Elevation
Unknown
Doppler factor
Unknown
Orbital elements
Apogee altitude
968.528 km
Perigee altitude
808.276 km
Semi-major axis
7,266.539 km
Eccentricity
0.01103
Inclination
89.662°
RAAN
282.9974°
Arg. of periapsis
144.1677°
True anomaly
215.9497°
Mean anomaly
216.6965°
Eccentric anomaly
216.32228°
Mean motion
3.5039 °/min
Orbital period
102.74 mins
BSTAR
0.00031163
Loading maneuver chart data...
Computing Atmospheric mass density...
Loading historical data...
Loading historical data...
Loading historical data...
Loading historical data...
Loading historical data...
Loading historical data...
Loading historical data...

Documentation

Showing up to 5 results
|